Home   Weather   Qikiqtarjuaq   Past weeks

Flag for Canada Past Weather in Qikiqtarjuaq, Nunavut, Canada — Yesterday and Last 2 Weeks

25 °F

Light snow. Overcast.

Feels Like: 15 °F
Forecast: 18 / 21 °F
Wind: 10 mph from Northwest

Location: Broughton Island Airport

Current Time: Oct 25, 2016 at 10:24:29 PM

Latest Report: Oct 25, 2016 at 10:01 PM

Visibility: 9 mi

Pressure: 30.02 "Hg

Humidity: 74%

Dew Point: 18 °F

Location of QikiqtarjuaqLocation

Past Weather in Qikiqtarjuaq — Graph


Qikiqtarjuaq Temperature Yesterday

Maximum temperature yesterday: 27 °F (at 12:00 AM)
Minimum temperature yesterday: 25 °F (at 2:56 AM)
Average temperature yesterday: 25 °F

High & Low Weather Summary for the Past Weeks

High30 °F (Oct 20, 7:00 PM)93% (Oct 11, 7:00 AM)30.42 "Hg (Oct 11, 7:00 AM)
Low10 °F (Oct 19, 4:00 AM)39% (Oct 19, 1:00 PM)29.62 "Hg (Oct 20, 7:00 PM)
Average24 °F74%29.96 "Hg
* Reported Oct 10 9:00 PM — Oct 25 9:00 PM, Qikiqtarjuaq, Weather by CustomWeather, © 2016

Note: Actual official high and low records may vary slightly from our data, if they occured in-between our weather recording intervals... More about our weather records


Qikiqtarjuaq Weather History for the Previous 24 Hours

Scroll right to see more
Time TempWeatherWind HumidityBarometerVisibility
9:00 PM
Tue, Oct 25
25 °FOvercast.9 mph74%30.02 "Hg9 mi
8:00 PM25 °FLight snow. Overcast.8 mph74%30.02 "Hg9 mi
7:00 PM25 °FLight snow. Overcast.8 mph86%30.02 "Hg3 mi
6:58 PM25 °FLight snow. Mostly cloudy.7 mph86%30.02 "Hg4 mi
6:00 PM25 °FLight snow. Passing clouds.9 mph80%30.02 "Hg12 mi
5:00 PM25 °FPassing clouds.9 mph74%30.01 "Hg15 mi
4:00 PM27 °FPassing clouds.16 mph69%30.00 "Hg15 mi
3:00 PM27 °FPartly sunny.16 mph69%29.99 "Hg15 mi
2:00 PM27 °FPartly sunny.13 mph69%29.98 "Hg15 mi
1:00 PM27 °FPartly sunny.13 mph69%29.98 "Hg15 mi
12:00 PM27 °FPartly sunny.16 mph69%29.97 "Hg15 mi
11:00 AM27 °FLight snow. Partly sunny.16 mph74%29.98 "Hg10 mi
10:00 AM25 °FLight snow. Partly sunny.12 mph80%29.98 "Hg8 mi
9:00 AM25 °FLight snow. Partly sunny.12 mph80%29.99 "Hg8 mi
8:00 AM25 °FLight snow. Overcast.12 mph86%30.00 "Hg8 mi
7:00 AM25 °FLight snow. Mostly cloudy.17 mph86%29.98 "Hg6 mi
6:04 AM25 °FLight snow. Passing clouds.20 mph86%29.99 "Hg2 mi
5:56 AM25 °FLight snow. Mostly cloudy.24 mph93%29.98 "Hg2 mi
5:00 AM25 °FLight snow. Mostly cloudy.16 mph86%29.98 "Hg8 mi
4:00 AM27 °FLight snow. Mostly cloudy.21 mph80%29.97 "Hg9 mi
3:00 AM25 °FLight snow. Overcast.20 mph80%29.96 "Hg9 mi
2:00 AM27 °FLight snow. Overcast.16 mph74%29.97 "Hg9 mi
1:57 AM27 °FLight snow. Overcast.18 mph74%29.97 "Hg9 mi
1:00 AM25 °FOvercast.18 mph80%29.97 "Hg9 mi
12:01 AM25 °FLight snow. Mostly cloudy.23 mph86%29.98 "Hg4 mi
11:02 PM
Mon, Oct 24
25 °FLight snow. Mostly cloudy.21 mph86%29.98 "Hg3 mi
10:00 PM25 °FLight snow. Overcast.20 mph86%29.99 "Hg9 mi
Weather by CustomWeather, © 2016

See weather overviewHow to use our weather pages